Sidney, British Columbia

6:48 AM PST on February 25, 2018 (GMT -0800)
Sidney

Weather History for 71799 - January, 2013

Change the Weather History Date:

Friday, January 4, 2013

  Actual Average Record
Temperature  
Mean Temperature 37 °F -  
Max Temperature 41 °F 44 °F - ()
Min Temperature 33 °F 33 °F - ()
Degree Days  
Heating Degree Days 28    
Moisture  
Dew Point 38 °F    
Average Humidity 97    
Maximum Humidity 100    
Minimum Humidity 93    
Precipitation  
Precipitation 0.16 in 0.18 in - ()
Sea Level Pressure  
Sea Level Pressure 30.25 in    
Wind  
Wind Speed 5 mph ()    
Max Wind Speed 10 mph    
Max Gust Speed -    
Visibility 1.9 miles    
Events Fog , Rain    
T = Trace of Precipitation, MM = Missing Value Source: Averaged Metar Reports

Daily Weather History Graph

Daily Weather History Graph

Search for Another Location

Airport or City:

Trip Planner

Search our weather history database for the weather conditions in past years. The results will help you decide how hot, cold, wet, or windy it might be!

Date:

Astronomy

Jan. 04, 2013 Rise Set
Actual Time 8:05 AM PST 4:32 PM PST
Civil Twilight 7:29 AM PST 5:08 PM PST
Nautical Twilight 6:49 AM PST 5:48 PM PST
Astronomical Twilight 6:11 AM PST 6:26 PM PST
Moon No Moon Rise 11:12 AM PST (1/4)
Length of Visible Light 9h 39m
Length of Day
8h 26m
Waning Gibbous, 54% of the Moon is Illuminated
Jan 4
Waning Gibbous
Jan 4
Last Quarter
Jan 11
New
Jan 18
First Quarter
Jan 26
Full

Hourly Weather History & Observations

Time (PST) Temp. Windchill Dew Point Humidity Pressure Visibility Wind Dir Wind Speed Gust Speed Precip Events Conditions
12:00 AM 35.6 °F 30.7 °F 33.8 °F 93% 30.15 in 2.0 mi WSW 5.8 mph - N/A Rain Light Rain
12:19 AM 35.6 °F 29.9 °F - N/A% - 2.0 mi SW 6.9 mph - N/A   Light Drizzle
1:00 AM 35.6 °F 28.0 °F 33.8 °F 93% 30.15 in 2.0 mi WSW 10.4 mph - N/A   Light Drizzle
1:28 AM 35.6 °F 30.7 °F - N/A% - 3.0 mi West 5.8 mph - N/A   Light Drizzle
2:00 AM 35.6 °F 29.2 °F 35.6 °F 100% 30.18 in 3.0 mi West 8.1 mph - N/A   Light Drizzle
2:18 AM 35.6 °F 30.7 °F - N/A% - 2.5 mi West 5.8 mph - N/A   Light Drizzle
3:00 AM 35.6 °F 29.9 °F 35.6 °F 100% 30.20 in 2.0 mi WSW 6.9 mph - N/A   Light Drizzle
4:00 AM 36 °F - 36 °F 98% 30.21 in 2 mi West 5.8 mph - - Rain Light Drizzle
4:00 AM 35.6 °F 31.7 °F 35.6 °F 100% 30.21 in 2.0 mi West 4.6 mph - N/A   Light Drizzle
5:00 AM 35.6 °F 30.7 °F 35.6 °F 100% 30.22 in 1.5 mi West 5.8 mph - N/A   Light Drizzle
6:00 AM 37.4 °F 33.8 °F 35.6 °F 93% 30.25 in 2.5 mi WSW 4.6 mph - N/A   Light Drizzle
6:13 AM 37.4 °F 33.8 °F - N/A% - 3.0 mi WSW 4.6 mph - N/A   Overcast
6:21 AM 37.4 °F 33.8 °F - N/A% - 4.0 mi WSW 4.6 mph - N/A   Overcast
6:45 AM 37.4 °F 32.8 °F - N/A% - 4.0 mi WSW 5.8 mph - N/A   Light Drizzle
7:00 AM 37.4 °F 33.8 °F 37.4 °F 100% 30.26 in 4.0 mi WSW 4.6 mph - N/A   Light Drizzle
8:00 AM 37.4 °F 32.8 °F 37.4 °F 100% 30.27 in 4.0 mi WSW 5.8 mph - N/A   Light Drizzle
9:00 AM 37.4 °F 33.8 °F 37.4 °F 100% 30.30 in 5.0 mi SW 4.6 mph - N/A   Light Drizzle
9:43 AM 37.4 °F 33.8 °F - N/A% - 3.0 mi WSW 4.6 mph - N/A   Light Drizzle
10:00 AM 38 °F - 37 °F 97% 30.31 in 1 mi WSW 4.6 mph - - Rain Light Drizzle
10:00 AM 37.4 °F 33.8 °F 37.4 °F 100% 30.31 in 1.0 mi WSW 4.6 mph - N/A   Light Drizzle
11:00 AM 39.2 °F 35.9 °F 37.4 °F 93% 30.32 in 1.0 mi West 4.6 mph - N/A   Light Drizzle
11:26 AM 39.2 °F 35.0 °F - N/A% - 0.8 mi WSW 5.8 mph - N/A   Light Drizzle
11:48 AM 39.2 °F 35.9 °F - N/A% - 1.0 mi West 4.6 mph - N/A   Light Drizzle
12:00 PM 39.2 °F 35.0 °F 39.2 °F 100% 30.31 in 2.0 mi West 5.8 mph - N/A   Light Drizzle
1:00 PM 39.2 °F 35.9 °F 39.2 °F 100% 30.30 in 2.0 mi West 4.6 mph - N/A   Light Drizzle
1:28 PM 39.2 °F 37.0 °F - N/A% - 1.0 mi West 3.5 mph - N/A   Light Drizzle
2:00 PM 41.0 °F - 39.2 °F 93% 30.29 in 0.6 mi WNW 2.3 mph - N/A   Light Drizzle
2:39 PM 41.0 °F - - N/A% - 0.5 mi Calm Calm - N/A Fog Light Drizzle
2:49 PM 41.0 °F - - N/A% - 0.2 mi Calm Calm - N/A Fog Light Drizzle
3:00 PM 41.0 °F - 39.2 °F 93% 30.28 in 0.2 mi West 2.3 mph - N/A Fog Light Drizzle
3:21 PM 41.0 °F 37.1 °F - N/A% - 0.5 mi WSW 5.8 mph - N/A Fog Light Drizzle
4:00 PM 40 °F - 40 °F 100% 30.30 in 0 mi West 4.6 mph - - Rain Light Drizzle
4:00 PM 41.0 °F 38.0 °F 39.2 °F 93% 30.30 in 0.5 mi West 4.6 mph - N/A Fog Light Drizzle
4:46 PM 41.0 °F - - N/A% - 0.6 mi NNW 2.3 mph - N/A   Light Drizzle
5:00 PM 41.0 °F - 41.0 °F 100% 30.27 in 0.6 mi Calm Calm - N/A   Light Drizzle
5:41 PM 41.0 °F 38.0 °F - N/A% - 0.8 mi West 4.6 mph - N/A   Light Drizzle
6:00 PM 41.0 °F 36.4 °F 41.0 °F 100% 30.25 in 0.8 mi West 6.9 mph - N/A   Light Drizzle
7:00 PM 41.0 °F - 39.2 °F 93% 30.25 in 1.0 mi Calm Calm - N/A   Light Drizzle
7:39 PM 41.0 °F - - N/A% - 0.8 mi West 2.3 mph - N/A   Light Drizzle
8:00 PM 41.0 °F 39.0 °F 41.0 °F 100% 30.23 in 0.8 mi SW 3.5 mph - N/A   Light Drizzle
9:00 PM 41.0 °F 39.0 °F 39.2 °F 93% 30.22 in 2.0 mi West 3.5 mph - N/A   Overcast
9:38 PM 41.0 °F 39.0 °F - N/A% - 3.0 mi West 3.5 mph - N/A   Overcast
10:00 PM 40 °F - 40 °F 100% 30.21 in 3 mi West 4.6 mph - -   Mist
10:00 PM 41.0 °F 39.0 °F 39.2 °F 93% 30.21 in 3.0 mi West 3.5 mph - N/A   Overcast
11:00 PM 41.0 °F 37.1 °F 39.2 °F 93% 30.22 in 4.0 mi West 5.8 mph - N/A   Overcast
11:14 PM 41.0 °F 38.0 °F - N/A% - 4.0 mi WNW 4.6 mph - N/A   Overcast